Location: Chilton Park
(37.7711°N, 100.0276°W)
Time: 22:14:27
(UTC+00:00)

Cosmos 2227 Rocket - Pass Details

Date: 03 July 2022
Orbit: 840 x 844 km, 71.0° (Epoch: 15 August)

Event Time Altitude Azimuth Distance (km) Brightness Sun altitude
Exits shadow 10:24:37 12° 247° (WSW) 2,328 3.9 -10.3°
Maximum altitude 10:28:58 28° 302° (WNW) 1,547 3.4 -9.6°
Drops below altitude 10° 10:33:46 10° 360° (N) 2,470 5.2 -8.9°
Sets 10:36:35 0° 12° (NNE) 3,408 6.2 -8.4°
